SCP
-0 -0 -0 -0 -0 -0 -0 -0 -0 -0 -0 -0 -0 -0 0 0 0 -0 -0 0 0 0 -0 0 -0 -0 -0 -0 0 0 0 0 0 0 0 0 0 0 0 0 0 0 0 0 -0
-0 -0 -0 -0 -0 -0 -0 -0 -0 -0 -0 -0 -0 -0 0 0 -0 -0 0 0 -0 -0 0 0 -0 -0 -0 0 0 0 0 0 0 0 0 0 0 0 0 0 0 0 -0 -0 -0
-0 -0 -0 -0 -0 -0 -0 -0 -0 -0 -0 -0 -0 -0 0 0 -0 0 0 0 -0 0 0 0 0 0 0 0 0 0 0 0 0 0 -0 -0 0 0 0 0 0 -0 -0 -0 -0
0 -0 -0 -0 -0 -0 -0 -0 -0 -0 -0 -0 -0 -0 0 0 0 0 0 0 0 0 0 0 0 0 0 0 0 0 0 0 -0 0 0 0 0 0 0 -0 0 -0 -0 -0 -0
0 0 0 -0 -0 -0 -0 -0 -0 -0 -0 -0 -0 0 -0 0 0 0 0 0 0 0 0 0 0 -0 0 0 0 0 0 -0 -0 0 0 0 0 -0 0 0 -0 -0 -0 -0 -0
-0 -0 0 0 0 -0 -0 -0 -0 -0 -0 -0 0 0 0 0 0 0 0 0 0 0 0 0 0 0 0 0 0 0 0 0 0 0 0 0 -0 -0 0 -0 -0 -0 -0 -0 -0
-0 -0 -0 -0 0 0 -0 -0 -0 -0 -0 0 -0 0 0 0 0 0 0 0 0 0 0 0 0 0 0 0 0 0 0 0 0 0 -0 0 -0 -0 0 -0 -0 -0 -0 -0 -0
-0 -0 -0 -0 -0 -0 0 -0 -0 0 0 0 0 0 0 0 0 0 0 0 0 0 0 0 0 0 0 0 0 0 0 0 -0 0 0 -0 -0 -0 0 -0 -0 -0 -0 -0 -0
-0 -0 -0 -0 -0 -0 -0 0 0 0 0 0 0 0 0 0 0 0 0 0 0 0 0 0 0 0 0 0 -0 0 -0 0 0 0 0 -0 -0 -0 -0 0 -0 -0 -0 -0 -0
-0 -0 -0 -0 -0 -0 -0 -0 -0 0 0 0 0 0 0 0 0 0 0 0 0 0 0 0 0 -0 0 -0 0 0 -0 0 0 0 0 0 -0 -0 -0 -0 -0 -0 -0 -0 -0
-0 -0 -0 -0 -0 -0 -0 0 0 0 0 0 0 0 0 0 0 0 0 0 0 0 0 0 0 -0 0 0 0 -0 0 0 0 0 -0 -0 -0 -0 -0 -0 -0 -0 -0 -0 -0
-0 -0 -0 -0 -0 -0 0 0 0 0 0 0 0 0 0 0 0 0 0 0 0 0 0 0 -0 -0 -0 -0 0 0 -0 0 0 0 0 -0 -0 -0 -0 -0 -0 -0 -0 -0 -0
0 -0 -0 -0 -0 0 0 0 0 0 -0 -0 0 0 0 0 0 0 0 0 0 0 0 0 0 0 0 0 0 0 -0 0 -0 0 0 0 -0 -0 -0 -0 -0 -0 -0 -0 -0
0 0 0 -0 0 0 0 0 0 0 -0 0 0 0 0 0 0 0 0 0 0 0 0 0 0 0 0 0 0 0 0 0 0 -0 -0 -0 0 -0 0 -0 -0 -0 -0 -0 -0
0 0 0 0 0 0 0 0 0 0 0 0 0 0 0 0 0 0 0 0 0 0 0 0 0 0 0 0 0 0 0 0 0 0 -0 -0 -0 -0 0 -0 -0 -0 -0 -0 -0
0 0 0 -0 0 0 0 0 0 0 0 0 0 0 0 0 0 0 0 0 0 0 0 0 0 0 0 0 0 0 0 0 0 0 -0 0 -0 -0 -0 0 -0 -0 -0 -0 -0
0 0 0 0 0 0 0 0 0 0 0 0 0 0 0 0 0 0 0 0 0 0 0 0 0 0 0 0 0 0 0 0 0 0 -0 0 0 0 0 0 -0 -0 -0 -0 -0
0 0 0 0 0 0 0 0 0 0 0 0 0 0 0 0 0 0 0 0 0 0 0 0 0 0 0 0 0 0 0 0 0 0 0 0 0 0 0 0 0 0 0 -0 -0
0 -0 0 0 0 0 0 0 0 0 0 0 0 0 0 0 0 0 0 0 0 0 0 0 0 0 0 0 0 0 0 0 0 0 0 0 0 0 0 0 0 -0 0 0 -0
0 0 0 0 0 0 0 0 0 0 0 0 0 0 0 0 0 0 0 0 0 0 0 0 0 0 0 0 0 0 0 0 0 0 0 0 0 -0 0 0 -0 -0 0 -0 -0
0 0 0 0 0 0 0 0 0 0 0 0 0 0 0 0 0 0 0 0 0 0 0 0 0 0 0 0 0 0 0 0 0 0 0 0 0 0 0 0 0 0 0 -0 0
0 0 0 0 0 0 0 0 0 0 0 0 0 0 0 0 0 0 0 0 0 0 0 0 0 0 0 0 0 0 0 0 0 0 0 0 0 0 -0 -0 0 0 0 0 -0
0 0 0 0 0 0 0 0 0 0 0 0 0 0 0 0 0 0 0 0 0 0 0 0 0 0 0 0 0 0 0 0 0 0 0 0 0 0 0 0 0 -0 0 0 0
0 0 0 0 0 0 0 0 0 0 0 0 0 0 0 0 0 0 0 0 0 0 0 0 0 0 0 0 0 0 0 0 0 0 0 0 0 0 0 0 0 -0 0 0 0
0 0 0 0 0 0 0 0 0 0 0 0 0 0 0 0 0 0 0 0 0 0 0 0 0 0 0 0 0 0 0 0 0 0 0 0 0 0 0 0 0 0 0 0 0
0 0 0 0 0 0 0 0 0 0 0 0 0 0 0 0 0 0 0 0 0 0 0 0 0 0 0 0 0 0 0 0 0 0 0 0 0 0 0 0 0 0 0 0 0
0 0 0 0 0 0 0 0 0 0 0 0 0 0 0 0 0 0 0 0 0 0 0 0 0 0 0 0 0 0 0 0 0 0 0 0 0 0 0 0 0 0 0 0 0
Wind_Speed_500mb
25 25 27 28 28 28 29 29 29 29 30 31 31 31 33 32 34 35 38 26 24 26 25 11 8 6 6 5 7 3 4 6 10 16 13 23 13 10 8 32 9 7 30 37 52
28 30 30 30 30 30 30 31 31 31 31 31 31 32 33 33 34 40 34 28 26 31 35 19 17 12 5 5 5 7 2 5 6 20 21 29 21 12 19 19 14 29 39 53 50
29 29 31 34 33 33 33 33 33 33 32 32 31 32 31 29 31 6 6 33 38 31 26 20 15 11 8 6 9 5 6 6 12 18 44 36 17 12 27 14 18 49 60 56 52
33 33 32 32 35 36 36 36 35 34 33 33 31 31 28 21 7 6 6 6 37 42 35 30 22 8 8 7 10 6 19 16 19 31 34 38 21 11 24 6 24 47 56 54 50
36 37 37 36 36 37 38 37 36 35 33 33 31 29 25 13 25 20 18 7 25 51 45 39 27 13 11 4 4 11 7 7 17 35 36 32 19 6 10 14 41 47 46 47 43
38 39 41 40 38 38 39 40 37 34 32 32 30 27 20 13 12 9 13 6 13 43 52 40 22 23 10 3 2 5 18 30 33 33 31 24 14 3 9 32 44 48 45 41 42
40 42 42 43 43 39 39 41 39 35 31 30 28 24 26 36 14 9 9 11 6 36 54 43 17 18 9 3 3 9 21 26 26 22 12 27 9 7 31 40 41 42 41 40 39
43 43 44 43 43 42 41 40 39 37 30 26 25 20 20 18 16 23 14 14 18 25 35 37 25 12 4 4 5 7 7 13 13 16 14 13 2 10 36 45 41 40 40 40 42
47 46 43 43 43 41 41 38 35 35 26 20 19 16 18 10 11 21 22 16 22 29 27 24 27 8 7 8 10 4 15 18 17 20 15 15 2 18 38 38 39 40 41 41 41
48 49 47 43 42 40 35 33 26 24 19 12 20 10 24 11 5 5 31 19 19 34 20 18 8 11 8 15 21 25 16 16 18 25 19 22 19 20 41 41 39 40 41 43 44
50 50 49 43 40 36 27 17 11 8 10 17 4 9 10 14 5 8 30 29 21 23 15 14 14 28 35 28 7 22 26 32 16 15 26 30 27 25 43 42 43 44 43 46 49
49 51 51 45 38 24 21 7 17 11 22 27 40 58 49 29 8 12 24 26 16 24 16 13 30 29 18 15 16 26 33 28 8 19 28 24 34 26 43 57 55 52 50 51 49
49 48 50 43 30 16 8 11 12 25 11 22 34 36 46 39 27 24 39 26 21 19 29 24 15 27 21 20 21 18 37 25 17 12 14 6 25 25 33 42 48 51 52 53 55
51 50 49 44 10 28 11 19 21 18 7 10 10 11 27 29 15 50 41 30 9 30 20 11 15 38 26 28 26 24 20 17 19 15 7 12 15 13 26 38 44 57 59 62 60
47 44 47 42 35 23 14 20 20 3 9 5 9 5 20 32 21 32 56 33 22 16 13 21 24 34 35 29 29 10 31 27 22 16 9 12 8 1 10 29 45 62 66 67 66
50 42 45 42 34 6 7 15 2 6 17 5 9 13 14 28 11 18 36 28 20 11 4 8 5 15 19 17 33 31 22 14 10 10 14 14 15 12 13 21 36 57 68 70 71
51 48 43 44 31 26 14 2 8 12 3 8 9 12 16 21 20 21 32 34 26 20 21 8 19 5 9 20 15 12 19 13 15 14 13 5 15 23 16 29 36 37 69 76 71
53 50 45 35 21 22 10 5 20 12 16 4 3 9 14 20 25 23 33 40 25 22 14 25 22 28 17 16 22 31 29 21 20 19 19 7 17 13 19 34 37 37 40 48 65
55 51 33 24 19 20 20 18 14 14 9 8 3 7 10 18 11 30 34 48 40 34 21 23 22 6 16 12 25 15 21 20 17 5 8 8 13 21 15 23 23 35 34 49 62
55 53 16 16 16 21 12 19 13 9 7 5 22 9 13 13 22 31 28 36 31 39 24 13 10 16 17 15 6 17 28 14 7 26 26 15 10 17 11 20 19 23 35 43 51
45 25 18 6 15 14 13 14 16 37 8 5 7 11 14 9 15 19 19 22 45 38 38 16 6 8 13 27 38 14 15 3 11 11 28 26 20 16 21 22 21 23 26 30 36
21 8 4 11 6 4 8 8 7 14 29 25 7 9 8 7 11 15 18 21 39 39 38 34 15 20 17 9 14 38 39 35 19 14 4 12 27 6 21 22 19 30 22 16 22
31 14 8 12 7 4 11 13 13 12 27 13 19 15 1 7 7 5 3 13 5 31 32 26 21 17 18 13 10 17 12 20 18 4 27 23 16 2 10 18 34 36 25 16 18
12 7 8 8 7 9 13 11 13 19 32 23 13 8 9 10 2 4 5 5 18 14 7 32 17 32 35 22 16 15 20 24 31 23 23 24 27 14 19 22 29 37 31 22 24
5 2 5 7 1 18 9 10 18 10 14 8 20 33 16 14 15 14 8 7 2 1 5 11 15 22 34 34 35 30 26 36 35 37 23 25 24 26 25 29 38 37 25 27 31
6 4 3 22 14 15 6 2 13 13 10 6 6 24 13 20 21 13 13 7 12 4 6 3 8 19 28 39 35 39 45 36 35 33 33 38 30 25 29 16 31 42 32 38 43
9 9 6 7 8 11 4 7 12 27 12 11 21 26 12 5 19 19 20 19 11 3 1 3 6 10 21 20 30 25 48 45 43 30 30 29 25 25 19 22 41 51 46 54 59
Wind_Direction_500mb
330 328 326 324 323 322 321 320 321 322 322 322 321 318 313 304 294 284 268 255 228 213 175 183 192 208 211 248 222 182 245 222 179 164 132 146 138 139 126 139 122 162 150 158 158
327 325 323 321 319 318 317 316 315 317 318 319 320 318 314 308 299 284 275 253 230 217 202 208 188 194 223 225 205 226 237 262 186 151 149 153 147 144 150 143 104 120 133 149 159
331 324 320 319 317 315 314 314 313 313 315 315 318 319 317 315 314 295 213 223 217 212 190 186 183 200 228 203 186 166 249 259 179 150 144 147 142 153 166 202 180 156 150 157 162
327 327 325 318 314 313 313 313 312 310 310 311 314 317 314 312 281 150 117 91 208 202 198 190 182 200 241 212 171 237 257 246 136 143 141 152 155 163 175 298 170 163 158 160 169
327 325 323 322 316 311 313 312 310 308 306 305 308 310 310 285 258 256 269 274 194 199 195 187 181 189 240 203 176 219 290 159 151 151 140 135 148 132 218 137 146 153 163 170 176
326 324 323 321 317 315 313 310 309 304 301 299 300 300 294 264 256 237 240 202 201 196 191 192 198 202 247 161 319 39 99 107 133 139 142 132 134 100 150 149 150 160 170 180 184
324 321 319 320 319 316 314 310 306 300 296 293 289 287 278 265 247 198 149 158 180 194 189 187 196 183 199 145 60 126 107 99 124 139 131 128 155 231 162 162 163 171 177 184 193
328 323 319 319 318 317 315 311 307 300 294 285 276 274 261 260 241 218 210 163 151 153 192 189 190 190 199 109 77 166 155 142 157 161 142 191 74 154 169 171 176 182 185 190 197
331 328 321 321 319 318 318 315 309 302 293 274 260 248 262 238 242 204 186 171 162 169 178 175 186 180 159 177 150 206 180 166 163 189 153 204 32 174 179 187 184 192 196 199 202
334 331 327 327 322 321 322 316 305 298 288 265 241 271 238 160 95 128 181 161 151 163 138 158 149 178 154 194 200 189 182 180 180 187 189 201 238 180 184 192 199 201 204 204 208
335 333 331 333 327 326 323 325 311 289 265 223 216 233 155 197 286 197 192 175 146 158 169 182 185 195 192 200 248 189 197 191 192 181 188 221 232 204 191 201 205 210 210 213 214
333 332 330 336 332 332 334 71 62 333 303 266 257 250 244 246 294 204 183 166 157 180 144 161 209 201 181 181 168 190 189 197 172 170 202 214 232 217 197 210 206 206 215 218 220
334 332 328 337 338 3 32 83 11 339 262 282 245 242 237 229 219 219 177 164 175 178 188 194 186 164 170 170 163 182 191 190 213 147 191 195 257 222 213 216 214 218 219 223 223
329 332 330 334 359 352 147 3 339 325 285 258 230 244 191 191 221 219 196 172 169 196 174 209 152 167 176 186 181 190 206 175 159 178 229 211 289 211 209 210 213 218 217 222 223
324 327 323 324 325 332 280 312 323 121 297 149 173 187 183 187 148 196 194 188 179 168 191 187 173 175 181 183 189 218 172 169 186 183 190 188 254 254 191 216 217 221 218 220 221
319 323 316 315 320 327 321 316 132 199 240 264 160 168 159 210 179 133 174 182 170 145 221 220 178 190 181 171 184 141 121 114 125 189 239 181 206 258 197 219 227 222 223 222 220
317 318 314 306 301 291 285 266 188 223 341 210 191 172 195 188 197 174 181 182 176 177 198 181 210 178 190 171 163 188 182 215 229 223 259 109 194 254 240 240 240 219 221 223 221
317 314 314 302 270 261 202 168 218 199 213 1 190 133 194 168 212 175 178 193 201 181 167 193 208 205 193 219 181 195 207 223 228 231 252 118 218 240 246 263 255 248 239 231 223
321 316 319 292 251 227 178 214 217 194 241 228 264 226 205 198 209 197 195 199 195 195 194 186 223 177 207 176 177 171 213 237 230 77 240 219 245 275 270 259 251 250 237 230 225
331 323 317 289 265 187 204 236 227 234 320 252 227 223 215 193 193 198 189 199 195 197 203 188 208 198 180 179 147 218 155 175 219 218 235 221 249 237 225 236 242 249 235 239 230
335 323 331 13 141 180 227 228 238 258 261 300 257 238 235 220 208 198 205 205 203 188 195 158 248 134 167 202 193 168 190 162 193 235 228 239 237 213 216 222 238 252 245 249 232
348 303 215 3 239 217 235 220 244 250 237 239 268 254 231 212 201 209 219 232 198 170 190 196 206 219 200 118 207 215 210 204 215 185 244 259 248 190 238 271 266 263 271 269 227
329 283 278 262 275 262 312 287 272 261 242 232 231 233 302 237 236 249 183 23 69 185 187 171 213 211 215 193 186 214 181 196 210 203 211 233 243 206 249 264 263 258 269 259 220
330 316 333 42 54 13 351 286 270 256 252 251 276 254 225 218 184 194 239 42 8 122 115 179 197 213 225 223 216 200 196 194 205 219 220 229 243 248 253 250 265 252 254 248 220
308 335 351 346 356 336 300 294 307 302 316 278 235 242 242 240 230 231 247 295 266 143 157 170 210 207 235 233 228 239 219 205 214 229 222 218 210 231 240 242 243 265 243 232 220
273 294 315 300 298 312 285 343 340 347 306 307 300 337 288 237 243 233 227 222 254 292 306 1 225 201 225 228 226 230 235 229 226 236 240 244 232 235 249 254 256 253 240 226 215
250 261 284 286 298 304 275 12 325 334 291 315 5 342 295 38 341 298 285 288 278 335 107 308 230 182 234 223 221 244 236 230 231 228 235 229 231 233 229 231 240 244 232 229 220
Wind_Speed_850mb
25 25 27 28 28 28 29 29 29 29 30 31 31 31 33 32 34 35 38 26 24 26 25 11 8 6 6 5 7 3 4 6 10 16 13 23 13 10 8 32 9 7 30 37 52
28 30 30 30 30 30 30 31 31 31 31 31 31 32 33 33 34 40 34 28 26 31 35 19 17 12 5 5 5 7 2 5 6 20 21 29 21 12 19 19 14 29 39 53 50
29 29 31 34 33 33 33 33 33 33 32 32 31 32 31 29 31 6 6 33 38 31 26 20 15 11 8 6 9 5 6 6 12 18 44 36 17 12 27 14 18 49 60 56 52
33 33 32 32 35 36 36 36 35 34 33 33 31 31 28 21 7 6 6 6 37 42 35 30 22 8 8 7 10 6 19 16 19 31 34 38 21 11 24 6 24 47 56 54 50
36 37 37 36 36 37 38 37 36 35 33 33 31 29 25 13 25 20 18 7 25 51 45 39 27 13 11 4 4 11 7 7 17 35 36 32 19 6 10 14 41 47 46 47 43
38 39 41 40 38 38 39 40 37 34 32 32 30 27 20 13 12 9 13 6 13 43 52 40 22 23 10 3 2 5 18 30 33 33 31 24 14 3 9 32 44 48 45 41 42
40 42 42 43 43 39 39 41 39 35 31 30 28 24 26 36 14 9 9 11 6 36 54 43 17 18 9 3 3 9 21 26 26 22 12 27 9 7 31 40 41 42 41 40 39
43 43 44 43 43 42 41 40 39 37 30 26 25 20 20 18 16 23 14 14 18 25 35 37 25 12 4 4 5 7 7 13 13 16 14 13 2 10 36 45 41 40 40 40 42
47 46 43 43 43 41 41 38 35 35 26 20 19 16 18 10 11 21 22 16 22 29 27 24 27 8 7 8 10 4 15 18 17 20 15 15 2 18 38 38 39 40 41 41 41
48 49 47 43 42 40 35 33 26 24 19 12 20 10 24 11 5 5 31 19 19 34 20 18 8 11 8 15 21 25 16 16 18 25 19 22 19 20 41 41 39 40 41 43 44
50 50 49 43 40 36 27 17 11 8 10 17 4 9 10 14 5 8 30 29 21 23 15 14 14 28 35 28 7 22 26 32 16 15 26 30 27 25 43 42 43 44 43 46 49
49 51 51 45 38 24 21 7 17 11 22 27 40 58 49 29 8 12 24 26 16 24 16 13 30 29 18 15 16 26 33 28 8 19 28 24 34 26 43 57 55 52 50 51 49
49 48 50 43 30 16 8 11 12 25 11 22 34 36 46 39 27 24 39 26 21 19 29 24 15 27 21 20 21 18 37 25 17 12 14 6 25 25 33 42 48 51 52 53 55
51 50 49 44 10 28 11 19 21 18 7 10 10 11 27 29 15 50 41 30 9 30 20 11 15 38 26 28 26 24 20 17 19 15 7 12 15 13 26 38 44 57 59 62 60
47 44 47 42 35 23 14 20 20 3 9 5 9 5 20 32 21 32 56 33 22 16 13 21 24 34 35 29 29 10 31 27 22 16 9 12 8 1 10 29 45 62 66 67 66
50 42 45 42 34 6 7 15 2 6 17 5 9 13 14 28 11 18 36 28 20 11 4 8 5 15 19 17 33 31 22 14 10 10 14 14 15 12 13 21 36 57 68 70 71
51 48 43 44 31 26 14 2 8 12 3 8 9 12 16 21 20 21 32 34 26 20 21 8 19 5 9 20 15 12 19 13 15 14 13 5 15 23 16 29 36 37 69 76 71
53 50 45 35 21 22 10 5 20 12 16 4 3 9 14 20 25 23 33 40 25 22 14 25 22 28 17 16 22 31 29 21 20 19 19 7 17 13 19 34 37 37 40 48 65
55 51 33 24 19 20 20 18 14 14 9 8 3 7 10 18 11 30 34 48 40 34 21 23 22 6 16 12 25 15 21 20 17 5 8 8 13 21 15 23 23 35 34 49 62
55 53 16 16 16 21 12 19 13 9 7 5 22 9 13 13 22 31 28 36 31 39 24 13 10 16 17 15 6 17 28 14 7 26 26 15 10 17 11 20 19 23 35 43 51
45 25 18 6 15 14 13 14 16 37 8 5 7 11 14 9 15 19 19 22 45 38 38 16 6 8 13 27 38 14 15 3 11 11 28 26 20 16 21 22 21 23 26 30 36
21 8 4 11 6 4 8 8 7 14 29 25 7 9 8 7 11 15 18 21 39 39 38 34 15 20 17 9 14 38 39 35 19 14 4 12 27 6 21 22 19 30 22 16 22
31 14 8 12 7 4 11 13 13 12 27 13 19 15 1 7 7 5 3 13 5 31 32 26 21 17 18 13 10 17 12 20 18 4 27 23 16 2 10 18 34 36 25 16 18
12 7 8 8 7 9 13 11 13 19 32 23 13 8 9 10 2 4 5 5 18 14 7 32 17 32 35 22 16 15 20 24 31 23 23 24 27 14 19 22 29 37 31 22 24
5 2 5 7 1 18 9 10 18 10 14 8 20 33 16 14 15 14 8 7 2 1 5 11 15 22 34 34 35 30 26 36 35 37 23 25 24 26 25 29 38 37 25 27 31
6 4 3 22 14 15 6 2 13 13 10 6 6 24 13 20 21 13 13 7 12 4 6 3 8 19 28 39 35 39 45 36 35 33 33 38 30 25 29 16 31 42 32 38 43
9 9 6 7 8 11 4 7 12 27 12 11 21 26 12 5 19 19 20 19 11 3 1 3 6 10 21 20 30 25 48 45 43 30 30 29 25 25 19 22 41 51 46 54 59
Wind_Direction_850mb
330 328 326 324 323 322 321 320 321 322 322 322 321 318 313 304 294 284 268 255 228 213 175 183 192 208 211 248 222 182 245 222 179 164 132 146 138 139 126 139 122 162 150 158 158
327 325 323 321 319 318 317 316 315 317 318 319 320 318 314 308 299 284 275 253 230 217 202 208 188 194 223 225 205 226 237 262 186 151 149 153 147 144 150 143 104 120 133 149 159
331 324 320 319 317 315 314 314 313 313 315 315 318 319 317 315 314 295 213 223 217 212 190 186 183 200 228 203 186 166 249 259 179 150 144 147 142 153 166 202 180 156 150 157 162
327 327 325 318 314 313 313 313 312 310 310 311 314 317 314 312 281 150 117 91 208 202 198 190 182 200 241 212 171 237 257 246 136 143 141 152 155 163 175 298 170 163 158 160 169
327 325 323 322 316 311 313 312 310 308 306 305 308 310 310 285 258 256 269 274 194 199 195 187 181 189 240 203 176 219 290 159 151 151 140 135 148 132 218 137 146 153 163 170 176
326 324 323 321 317 315 313 310 309 304 301 299 300 300 294 264 256 237 240 202 201 196 191 192 198 202 247 161 319 39 99 107 133 139 142 132 134 100 150 149 150 160 170 180 184
324 321 319 320 319 316 314 310 306 300 296 293 289 287 278 265 247 198 149 158 180 194 189 187 196 183 199 145 60 126 107 99 124 139 131 128 155 231 162 162 163 171 177 184 193
328 323 319 319 318 317 315 311 307 300 294 285 276 274 261 260 241 218 210 163 151 153 192 189 190 190 199 109 77 166 155 142 157 161 142 191 74 154 169 171 176 182 185 190 197
331 328 321 321 319 318 318 315 309 302 293 274 260 248 262 238 242 204 186 171 162 169 178 175 186 180 159 177 150 206 180 166 163 189 153 204 32 174 179 187 184 192 196 199 202
334 331 327 327 322 321 322 316 305 298 288 265 241 271 238 160 95 128 181 161 151 163 138 158 149 178 154 194 200 189 182 180 180 187 189 201 238 180 184 192 199 201 204 204 208
335 333 331 333 327 326 323 325 311 289 265 223 216 233 155 197 286 197 192 175 146 158 169 182 185 195 192 200 248 189 197 191 192 181 188 221 232 204 191 201 205 210 210 213 214
333 332 330 336 332 332 334 71 62 333 303 266 257 250 244 246 294 204 183 166 157 180 144 161 209 201 181 181 168 190 189 197 172 170 202 214 232 217 197 210 206 206 215 218 220
334 332 328 337 338 3 32 83 11 339 262 282 245 242 237 229 219 219 177 164 175 178 188 194 186 164 170 170 163 182 191 190 213 147 191 195 257 222 213 216 214 218 219 223 223
329 332 330 334 359 352 147 3 339 325 285 258 230 244 191 191 221 219 196 172 169 196 174 209 152 167 176 186 181 190 206 175 159 178 229 211 289 211 209 210 213 218 217 222 223
324 327 323 324 325 332 280 312 323 121 297 149 173 187 183 187 148 196 194 188 179 168 191 187 173 175 181 183 189 218 172 169 186 183 190 188 254 254 191 216 217 221 218 220 221
319 323 316 315 320 327 321 316 132 199 240 264 160 168 159 210 179 133 174 182 170 145 221 220 178 190 181 171 184 141 121 114 125 189 239 181 206 258 197 219 227 222 223 222 220
317 318 314 306 301 291 285 266 188 223 341 210 191 172 195 188 197 174 181 182 176 177 198 181 210 178 190 171 163 188 182 215 229 223 259 109 194 254 240 240 240 219 221 223 221
317 314 314 302 270 261 202 168 218 199 213 1 190 133 194 168 212 175 178 193 201 181 167 193 208 205 193 219 181 195 207 223 228 231 252 118 218 240 246 263 255 248 239 231 223
321 316 319 292 251 227 178 214 217 194 241 228 264 226 205 198 209 197 195 199 195 195 194 186 223 177 207 176 177 171 213 237 230 77 240 219 245 275 270 259 251 250 237 230 225
331 323 317 289 265 187 204 236 227 234 320 252 227 223 215 193 193 198 189 199 195 197 203 188 208 198 180 179 147 218 155 175 219 218 235 221 249 237 225 236 242 249 235 239 230
335 323 331 13 141 180 227 228 238 258 261 300 257 238 235 220 208 198 205 205 203 188 195 158 248 134 167 202 193 168 190 162 193 235 228 239 237 213 216 222 238 252 245 249 232
348 303 215 3 239 217 235 220 244 250 237 239 268 254 231 212 201 209 219 232 198 170 190 196 206 219 200 118 207 215 210 204 215 185 244 259 248 190 238 271 266 263 271 269 227
329 283 278 262 275 262 312 287 272 261 242 232 231 233 302 237 236 249 183 23 69 185 187 171 213 211 215 193 186 214 181 196 210 203 211 233 243 206 249 264 263 258 269 259 220
330 316 333 42 54 13 351 286 270 256 252 251 276 254 225 218 184 194 239 42 8 122 115 179 197 213 225 223 216 200 196 194 205 219 220 229 243 248 253 250 265 252 254 248 220
308 335 351 346 356 336 300 294 307 302 316 278 235 242 242 240 230 231 247 295 266 143 157 170 210 207 235 233 228 239 219 205 214 229 222 218 210 231 240 242 243 265 243 232 220
273 294 315 300 298 312 285 343 340 347 306 307 300 337 288 237 243 233 227 222 254 292 306 1 225 201 225 228 226 230 235 229 226 236 240 244 232 235 249 254 256 253 240 226 215
250 261 284 286 298 304 275 12 325 334 291 315 5 342 295 38 341 298 285 288 278 335 107 308 230 182 234 223 221 244 236 230 231 228 235 229 231 233 229 231 240 244 232 229 220